0 HST 1 20580U 90037B 25251.24874103 .00007489 00000-0 27278-3 0 9995 2 20580 28.4678 201.5468 0002072 269.0890 90.9467 15.26240338745389 0 ISS (ZARYA) 1 25544U 98067A 25251.16330099 .00009791 00000-0 17817-3 0 9999 2 25544 51.6324 255.8058 0004236 313.9942 46.0697 15.50181910528033 0 CXO 1 25867U 99040B 25254.06208417 .00001005 00000-0 00000-0 0 9992 2 25867 51.2313 126.0722 8294853 310.3060 0.6801 0.37809756 16262